When you browse on this site, cookies collect data to enhance your experience and personalize the content and advertising you see.
Visit our Privacy Policy to learn more. By continuing to use the site, you agree to this use of cookies and data.

Tiempo cada hora Rimini

Hoy, 11 Julio, Sábado

Tiempo Temperatura Precipitaciones Viento Presión Humedad
00:00 +25°C° 0 mm 2 mps 759 mmHg 62%
01:00 +25°C° 0 mm 2 mps 760 mmHg 63%
02:00 +25°C° 0 mm 2 mps 759 mmHg 61%
03:00 +24°C° 0 mm 2 mps 759 mmHg 58%
04:00 +24°C° 0 mm 2 mps 758 mmHg 56%
05:00 +25°C° 0 mm 2 mps 759 mmHg 54%
06:00 +26°C° 0 mm 2 mps 759 mmHg 53%
07:00 +27°C° 0 mm 2 mps 759 mmHg 52%
08:00 +29°C° 0 mm 2 mps 759 mmHg 47%
09:00 +31°C° 0 mm 2 mps 759 mmHg 42%
10:00 +34°C° 0 mm 2 mps 759 mmHg 38%
11:00 +34°C° 0 mm 3 mps 759 mmHg 37%
12:00 +35°C° 0 mm 3 mps 759 mmHg 36%
13:00 +36°C° 0 mm 4 mps 759 mmHg 35%
14:00 +36°C° 0 mm 4 mps 759 mmHg 36%
15:00 +36°C° 0 mm 4 mps 758 mmHg 38%
16:00 +36°C° 0 mm 4 mps 758 mmHg 39%
17:00 +34°C° 0 mm 4 mps 758 mmHg 45%
18:00 +33°C° 0 mm 4 mps 758 mmHg 50%
19:00 +30°C° 0 mm 4 mps 759 mmHg 56%
20:00 +28°C° 0 mm 5 mps 759 mmHg 63%
21:00 +27°C° 0 mm 6 mps 760 mmHg 69%
22:00 +24°C° 0 mm 7 mps 761 mmHg 76%
23:00 +23°C° 0.2 mm 7 mps 761 mmHg 79%

Mañana, 12 Julio, Domingo

Tiempo Temperatura Precipitaciones Viento Presión Humedad
00:00 +23°C° 0.2 mm 7 mps 761 mmHg 82%
01:00 +22°C° 0.2 mm 7 mps 762 mmHg 85%
02:00 +22°C° 0 mm 7 mps 762 mmHg 84%
03:00 +22°C° 0 mm 6 mps 762 mmHg 82%
04:00 +21°C° 0 mm 5 mps 762 mmHg 81%
05:00 +22°C° 0 mm 5 mps 763 mmHg 79%
06:00 +22°C° 0 mm 5 mps 763 mmHg 77%
07:00 +22°C° 0 mm 5 mps 763 mmHg 75%
08:00 +23°C° 0 mm 5 mps 763 mmHg 68%
09:00 +25°C° 0 mm 5 mps 763 mmHg 62%
10:00 +26°C° 0 mm 5 mps 764 mmHg 56%
11:00 +26°C° 0 mm 6 mps 764 mmHg 52%
12:00 +27°C° 0 mm 6 mps 764 mmHg 49%
13:00 +27°C° 0 mm 6 mps 764 mmHg 45%
14:00 +27°C° 0 mm 6 mps 764 mmHg 46%
15:00 +27°C° 0 mm 6 mps 763 mmHg 46%
16:00 +27°C° 0 mm 5 mps 763 mmHg 46%
17:00 +26°C° 0 mm 5 mps 763 mmHg 50%
18:00 +26°C° 0 mm 4 mps 763 mmHg 53%
19:00 +25°C° 0 mm 4 mps 763 mmHg 56%
20:00 +23°C° 0 mm 4 mps 764 mmHg 58%
21:00 +22°C° 0 mm 4 mps 764 mmHg 59%
22:00 +21°C° 0 mm 5 mps 764 mmHg 61%
23:00 +21°C° 0 mm 5 mps 764 mmHg 62%

Pasado mañana, 13 Julio, Lunes

Tiempo Temperatura Precipitaciones Viento Presión Humedad
00:00 +20°C° 0 mm 5 mps 764 mmHg 63%
01:00 +20°C° 0 mm 5 mps 764 mmHg 64%
02:00 +19°C° 0 mm 5 mps 764 mmHg 67%
03:00 +19°C° 0 mm 5 mps 764 mmHg 69%
04:00 +18°C° 0 mm 4 mps 763 mmHg 71%
05:00 +20°C° 0 mm 5 mps 763 mmHg 67%
06:00 +21°C° 0 mm 5 mps 763 mmHg 62%
07:00 +23°C° 0 mm 5 mps 763 mmHg 58%
08:00 +25°C° 0 mm 5 mps 763 mmHg 53%
09:00 +26°C° 0 mm 6 mps 763 mmHg 49%
10:00 +27°C° 0 mm 6 mps 763 mmHg 44%
11:00 +27°C° 0 mm 6 mps 763 mmHg 43%
12:00 +28°C° 0 mm 5 mps 763 mmHg 42%
13:00 +28°C° 0 mm 5 mps 762 mmHg 41%
14:00 +28°C° 0 mm 5 mps 762 mmHg 40%
15:00 +28°C° 0 mm 4 mps 761 mmHg 39%
16:00 +28°C° 0 mm 4 mps 761 mmHg 39%
17:00 +27°C° 0 mm 3 mps 761 mmHg 43%
18:00 +26°C° 0 mm 3 mps 761 mmHg 48%
19:00 +24°C° 0 mm 2 mps 761 mmHg 52%
20:00 +23°C° 0 mm 2 mps 761 mmHg 55%
21:00 +21°C° 0 mm 2 mps 761 mmHg 59%
22:00 +19°C° 0 mm 2 mps 761 mmHg 62%
23:00 +19°C° 0 mm 2 mps 761 mmHg 63%

14 Julio, Martes

Tiempo Temperatura Precipitaciones Viento Presión Humedad
00:00 +19°C° 0 mm 2 mps 761 mmHg 65%
01:00 +19°C° 0 mm 3 mps 761 mmHg 66%
02:00 +18°C° 0 mm 3 mps 760 mmHg 67%
03:00 +18°C° 0 mm 3 mps 760 mmHg 69%
04:00 +18°C° 0 mm 3 mps 760 mmHg 70%
05:00 +19°C° 0 mm 3 mps 760 mmHg 67%
06:00 +21°C° 0 mm 3 mps 760 mmHg 65%
07:00 +22°C° 0 mm 3 mps 760 mmHg 62%
08:00 +25°C° 0 mm 3 mps 760 mmHg 57%
09:00 +26°C° 0 mm 3 mps 760 mmHg 51%
10:00 +28°C° 0 mm 3 mps 760 mmHg 46%
11:00 +28°C° 0 mm 3 mps 760 mmHg 44%
12:00 +29°C° 0 mm 4 mps 760 mmHg 41%
13:00 +29°C° 0 mm 4 mps 760 mmHg 39%
14:00 +29°C° 0 mm 3 mps 759 mmHg 39%
15:00 +29°C° 0 mm 3 mps 759 mmHg 39%
16:00 +29°C° 0 mm 3 mps 758 mmHg 40%
17:00 +28°C° 0 mm 2 mps 758 mmHg 45%
18:00 +27°C° 0 mm 2 mps 759 mmHg 51%
19:00 +25°C° 0 mm 2 mps 759 mmHg 56%
20:00 +24°C° 0 mm 2 mps 759 mmHg 59%
21:00 +23°C° 0 mm 1 mps 759 mmHg 62%
22:00 +22°C° 0 mm 1 mps 759 mmHg 66%
23:00 +21°C° 0 mm 1 mps 759 mmHg 66%

15 Julio, Miércoles

Tiempo Temperatura Precipitaciones Viento Presión Humedad
00:00 +21°C° 0 mm 1 mps 759 mmHg 67%
01:00 +21°C° 0 mm 1 mps 759 mmHg 67%
02:00 +21°C° 0 mm 1 mps 759 mmHg 67%
03:00 +21°C° 0 mm 1 mps 759 mmHg 68%
04:00 +21°C° 0 mm 1 mps 759 mmHg 68%
05:00 +22°C° 0.2 mm 1 mps 759 mmHg 67%
06:00 +23°C° 0.2 mm 1 mps 759 mmHg 66%
07:00 +24°C° 0.2 mm 1 mps 760 mmHg 65%
08:00 +26°C° 0 mm 1 mps 760 mmHg 59%
09:00 +28°C° 0 mm 1 mps 760 mmHg 53%
10:00 +29°C° 0 mm 1 mps 760 mmHg 48%
11:00 +30°C° 0.1 mm 2 mps 760 mmHg 46%
12:00 +31°C° 0.1 mm 2 mps 760 mmHg 45%
13:00 +31°C° 0.1 mm 3 mps 759 mmHg 43%
14:00 +31°C° 0.2 mm 3 mps 759 mmHg 45%
15:00 +31°C° 0.2 mm 3 mps 759 mmHg 48%
16:00 +30°C° 0.2 mm 4 mps 759 mmHg 50%
17:00 +29°C° 0 mm 4 mps 759 mmHg 56%
18:00 +28°C° 0 mm 4 mps 759 mmHg 61%
19:00 +27°C° 0 mm 4 mps 759 mmHg 67%
20:00 +26°C° 0 mm 4 mps 759 mmHg 70%
21:00 +25°C° 0 mm 3 mps 759 mmHg 73%
22:00 +22°C° 0 mm 3 mps 760 mmHg 76%
23:00 +22°C° 0 mm 3 mps 760 mmHg 74%

16 Julio, Jueves

Tiempo Temperatura Precipitaciones Viento Presión Humedad
00:00 +22°C° 0 mm 3 mps 760 mmHg 73%
01:00 +21°C° 0 mm 2 mps 760 mmHg 71%
02:00 +21°C° 0 mm 2 mps 760 mmHg 70%
03:00 +21°C° 0 mm 2 mps 759 mmHg 68%
04:00 +21°C° 0 mm 2 mps 759 mmHg 67%
05:00 +23°C° 0 mm 2 mps 759 mmHg 63%
06:00 +24°C° 0 mm 2 mps 759 mmHg 60%
07:00 +26°C° 0 mm 2 mps 760 mmHg 56%
08:00 +28°C° 0 mm 2 mps 760 mmHg 51%
09:00 +30°C° 0 mm 2 mps 760 mmHg 45%
10:00 +31°C° 0 mm 2 mps 760 mmHg 40%
11:00 +32°C° 0 mm 2 mps 759 mmHg 38%
12:00 +34°C° 0 mm 3 mps 759 mmHg 37%
13:00 +35°C° 0 mm 3 mps 759 mmHg 35%
14:00 +34°C° 0 mm 4 mps 759 mmHg 40%
15:00 +33°C° 0 mm 4 mps 758 mmHg 44%
16:00 +32°C° 0 mm 4 mps 758 mmHg 48%
17:00 +30°C° 0 mm 4 mps 758 mmHg 51%
18:00 +29°C° 0 mm 4 mps 758 mmHg 55%
19:00 +28°C° 0 mm 3 mps 758 mmHg 58%
20:00 +27°C° 0 mm 3 mps 758 mmHg 62%
21:00 +26°C° 0 mm 3 mps 758 mmHg 66%
22:00 +24°C° 0 mm 2 mps 758 mmHg 70%
23:00 +24°C° 0 mm 2 mps 758 mmHg 71%
Mostrar más